This is the latest recevied weather packets stored in our database for station/object KA3ZXO. If no packets are shown the sender has not sent any weather packets the latest 10 day(s).
| Time | Temp. | Humidity | Pressure | Rain* | Wind** | Luminosity | Snow |
|---|---|---|---|---|---|---|---|
| 1778098502 | 20° C | 83% | 1008.7 hPa | 0 mm | - | 53 W/m² | - |
| 1778097900 | 20° C | 83% | 1008.6 hPa | 0 mm | - | 74 W/m² | - |
| 1778097300 | 20° C | 84% | 1008.8 hPa | 0 mm | - | 63 W/m² | - |
| 1778096700 | 20° C | 83% | 1009 hPa | 0 mm | - | 67 W/m² | - |
| 1778096100 | 20° C | 82% | 1009.5 hPa | 0 mm | - | 69 W/m² | - |
| 1778095499 | 20° C | 82% | 1009.2 hPa | 0 mm | - | 68 W/m² | - |
| 1778094898 | 20° C | 83% | 1009.5 hPa | 0 mm | - | 101 W/m² | - |
| 1778094297 | 20° C | 82% | 1009.5 hPa | 0 mm | - | 105 W/m² | - |
| 1778093697 | 20° C | 82% | 1009.5 hPa | 0 mm | - | 145 W/m² | - |
| 1778093097 | 20° C | 83% | 1009.7 hPa | 0 mm | - | 73 W/m² | - |
| 1778092495 | 20° C | 83% | 1009.8 hPa | 0 mm | - | 89 W/m² | - |
| 1778091896 | 20° C | 84% | 1010.2 hPa | 0 mm | - | 163 W/m² | - |
| 1778091291 | 19.44° C | 85% | 1009.9 hPa | 0 mm | - | 177 W/m² | - |
| 1778090690 | 18.89° C | 87% | 1009.9 hPa | 0 mm | - | 124 W/m² | - |
| 1778090089 | 18.89° C | 87% | 1010.1 hPa | 0 mm | - | 117 W/m² | - |
| 1778089490 | 18.89° C | 87% | 1010.3 hPa | 0 mm | - | 126 W/m² | - |
| 1778088890 | 18.33° C | 89% | 1010.3 hPa | 0 mm | - | 128 W/m² | - |
| 1778088290 | 18.33° C | 91% | 1010.2 hPa | 0 mm | - | 148 W/m² | - |
| 1778087689 | 17.78° C | 92% | 1010.4 hPa | 0 mm | - | 140 W/m² | - |
| 1778087089 | 17.78° C | 93% | 1010.5 hPa | 0 mm | - | 149 W/m² | - |
| 1778086486 | 17.22° C | 93% | 1010.3 hPa | 0 mm | - | 156 W/m² | - |
| 1778085885 | 17.22° C | 95% | 1010.7 hPa | 0 mm | - | 136 W/m² | - |
| 1778085283 | 16.67° C | 96% | 1010.7 hPa | 0 mm | - | 61 W/m² | - |
| 1778084682 | 16.67° C | 96% | 1010.5 hPa | 0 mm | - | 88 W/m² | - |
| 1778084077 | 16.67° C | 95% | 1010.7 hPa | 1.27 mm | - | 96 W/m² | - |
* Rain latest hour (hover to see other rain measurements)
** Current wind speed in m/s (hover to see current wind gust speed)